User: anonymous   Login
Location: Unspecified
(0.0000°N, 0.0000°E)
Time: 15:38:59
(UTC+01:00)
Language:

GP-B - Orbit

View from above orbital plane
View from above orbital plane
View from above satellite
View from above satellite

Ground track
Ground track

The orbit data is extracted from the following two-line orbital elements,

1 28230U 04014A   16044.81346403  .00000452  00000-0  60002-4 0  9991
2 28230  89.8686 130.8191 0003307  95.9259 264.2341 14.78365326636795
Epoch (UTC): 13 February 2016 19:31:23
Eccentricity: 0.0003307
inclination: 89.8686°
perigee height: 632 km
apogee height: 637 km
right ascension of ascending node: 130.8191°
argument of perigee: 95.9259°
revolutions per day: 14.78365326
mean anomaly at epoch: 264.2341°
orbit number at epoch: 63679

The dashed part of the orbit path shows where the satellite is in the earth's shadow,  

DLR